Location: Allos
(44.2333°N, 6.6333°E)
Time: 08:33:30
(UTC+00:00)

STARS - Visible Passes

Search period start: 11 May 2021 00:00
Search period end: 21 May 2021 00:00
Orbit: 623 x 640 km, 98.2° (Epoch: 10 May)

Date Brightness Start Highest point End Pass type
(mag) Time Alt. Az. Time Alt. Az. Time Alt. Az.
11 May ? 21:29:26 10° NNE 21:33:48 84° WNW 21:34:38 58° SSW visible
12 May ? 20:15:13 10° NE 20:17:55 16° E 20:18:19 16° E visible
12 May ? 21:50:17 10° N 21:54:30 51° WNW 21:55:43 38° WSW visible
13 May ? 20:35:12 10° NE 20:38:51 25° E 20:39:23 25° ESE visible
13 May ? 22:11:18 10° N 22:15:09 31° WNW 22:16:47 24° WSW visible
14 May ? 20:55:35 10° NNE 20:59:43 41° E 21:00:27 38° SE visible
14 May ? 22:32:32 10° NNW 22:35:45 20° WNW 22:37:51 15° W visible
15 May ? 21:16:10 10° NNE 21:20:32 70° ESE 21:21:31 50° SSE visible
15 May ? 22:54:11 10° NNW 22:56:16 13° WNW 22:58:22 10° W visible
16 May ? 20:03:05 10° ENE 20:04:29 11° E 20:05:11 11° E visible
16 May ? 21:36:55 10° N 21:41:16 72° WNW 21:42:35 43° SW visible
17 May ? 20:22:22 10° NE 20:25:27 19° E 20:26:15 18° ESE visible
17 May ? 21:57:49 10° N 22:01:58 43° WNW 22:03:40 29° WSW visible
18 May ? 20:42:31 10° NE 20:46:23 30° E 20:47:19 27° ESE visible
18 May ? 22:18:54 10° N 22:22:35 27° WNW 22:24:43 19° WSW visible
19 May ? 21:02:58 10° NNE 21:07:13 49° E 21:08:23 38° SE visible
19 May ? 22:40:13 10° NNW 22:43:09 18° WNW 22:45:47 11° WSW visible
20 May ? 21:23:37 10° NNE 21:28:00 82° E 21:29:26 43° S visible
20 May ? 23:02:10 10° NW 23:03:40 12° WNW 23:05:09 10° W visible
